Simultaneous Nadir Overpasses (SNOs) Predictions

Prediction of SNOs between AQUA and NPP Satellite Orbit:

Table of predicted SNOs for the next 14.0 days since TLE Epoch: 11/17/2016
Index Date (AQUA) Time (AQUA) Lat,Lon (AQUA) SZA (AQUA ) Date (NPP) Time (NPP) Lat,Lon (NPP) SZA (NPP ) Distance(km) Time Diff (sec)
1 11/18/2016 20:59:16 -74.75, -79.26 63.31 11/18/2016 20:58:08 -74.76, -79.18 63.27 2.51 68
2 11/18/2016 21:48:16 76.01, 91.89 115.40 11/18/2016 21:48:25 76.01, 91.97 115.37 2.40 9
3 11/21/2016 13:15:42 -74.91, 37.03 62.86 11/21/2016 13:14:59 -74.91, 37.01 62.81 0.65 43
4 11/21/2016 14:04:42 76.16,-151.76 115.86 11/21/2016 14:05:16 76.16,-151.77 115.83 0.40 34
5 11/24/2016 05:31:57 -75.66, 154.96 63.04 11/24/2016 05:31:38 -75.67, 155.05 63.05 2.74 19
6 11/24/2016 06:21:07 76.39, -35.11 116.19 11/24/2016 06:22:06 76.39, -35.19 116.16 2.37 59
7 11/26/2016 20:59:16 74.79, 100.85 118.39 11/26/2016 20:58:05 74.80, 100.93 118.43 2.51 71
8 11/26/2016 21:48:21 -75.94, -88.32 62.80 11/26/2016 21:48:27 -75.95, -88.27 62.82 1.25 6
9 11/29/2016 13:15:38 75.17,-142.27 118.50 11/29/2016 13:14:52 75.18,-142.22 118.53 1.61 46




NCC Satellite Simultaneous Nadir Overpasses (SNOs) Prediction Service
